Regional Weather Roundup
Issued by NWS

Home | Current Version | Previous Version | Graphics & Text | Print | Product List | Glossary On
Versions: 1 2 3 4 5 6 7 8 9 10 11 12 13 14 15 16 17 18 19 20 21 22 23 24 25 26 27 28 29 30 31 32 33 34 35 36 37 38 39 40 41 42 43 44 45 46 47 48 49 50
000
ASUS43 KDMX 221301
RWRIA

WEATHER ROUNDUP FOR IOWA
NATIONAL WEATHER SERVICE DES MOINES IA
800 AM CDT SAT JUL 22 2017

NOTE: "FAIR" INDICATES FEW OR NO CLOUDS BELOW 12,000 FEET WITH NO
SIGNIFICANT WEATHER AND/OR OBSTRUCTIONS TO VISIBILITY.

* - THESE STATIONS ARE NOT NWS STATIONS...THUS NOT UNDER NWS
QUALITY CONTROL.  THEY ALSO DO NOT REPORT WEATHER SUCH
AS PRECIPITATION OR FOG.

IAZ001>003-012>014-020>022-031>034-043>046-221400-
   NORTHWEST IOWA

CITY           SKY/WX    TMP DP  RH WIND       PRES   REMARKS
CARROLL *      FOG       73  72  94 CALM      29.79F VSB<1/4
CHEROKEE *     CLOUDY    73  73  99 SW5       29.84R
DENISON *      FOG       73  73 100 NE5       29.84R VSB 3/4
ORANGE CITY *  MOSUNNY   73  72  94 W7        29.87R FOG
SHELDON *      CLOUDY    72  72 100 NW9       29.86R FOG
SIOUX CITY     CLOUDY    76  73  91 NW3       29.84R
SPENCER        CLOUDY    73  71  93 N6        29.86R FOG
STORM LAKE *   CLOUDY    72  72 100 S6        29.82R FOG
$$

IAZ055>058-069>071-079>083-090>094-221400-
   SOUTHWEST IOWA

CITY           SKY/WX    TMP DP  RH WIND       PRES   REMARKS
ATLANTIC *     PTSUNNY   77  75  94 CALM      29.78F
AUDUBON *      CLOUDY    73  72  94 CALM      29.82R FOG
CLARINDA *     SUNNY     79  75  89 SW3       29.82R HX  82
COUNCIL BLFS * CLOUDY    77  77 100 NE5       29.81R
CRESTON *      MOSUNNY   79  73  83 S6        29.82S HX  82
HARLAN  *      CLOUDY    75  75 100 N3        29.84R FOG
LAMONI         SUNNY     81  74  79 SE5       29.81S HX  86
RED OAK *      SUNNY     79  73  83 CALM      29.80S HX  82
SHENANDOAH *   SUNNY     79  73  83 CALM      29.80R HX  82
$$

IAZ047>049-059>061-072>074-084-221400-
   CENTRAL IOWA

CITY           SKY/WX    TMP DP  RH WIND       PRES   REMARKS
AMES           CLOUDY    76  73  91 S10       29.77R
ANKENY *       PTSUNNY   77  72  83 S8        29.78R
BOONE *        MOSUNNY   75  73  94 S9        29.78R
CHARITON *     SUNNY     81  73  78 S8        29.79F HX  85
DES MOINES     CLOUDY    77  74  90 SE13      29.77R
GRINNELL*      CLOUDY    74  68  82 S18       29.78F
KNOXVILLE *    CLOUDY    73  70  88 SE10G16   29.77R
MARSHALLTOWN   CLOUDY    73  70  90 S13       29.75R
NEWTON *       CLOUDY    72  70  94 S13G21    29.78R
PELLA *          N/A     72  70  93 S9        29.79R
$$

IAZ004>006-015-016-023>025-035-036-221400-
   NORTH CENTRAL IOWA

CITY           SKY/WX    TMP DP  RH WIND       PRES   REMARKS
ALGONA *       FOG       72  72 100 NW5       29.84R VSB 1/4
CLARION *      FOG       72  72 100 W6        29.81R VSB 1/4
ESTHERVILLE    CLOUDY    71  71 100 CALM      29.84R FOG
FORT DODGE *   CLOUDY    73  70  88 NW3       29.81R
MASON CITY     FOG       71  70  96 CALM      29.83R VSB 3/4
FOREST CITY *  FOG       70  70 100 CALM      29.83R VSB 1/2
WEBSTER CITY * CLOUDY    75  72  88 W5        29.78R
IOWA FALLS *     N/A     74  71  89 CALM      29.80R
$$

IAZ007>011-017>019-026>030-037>042-050>054-066-221400-
   NORTHEAST IOWA

CITY           SKY/WX    TMP DP  RH WIND       PRES   REMARKS
CEDAR RAPIDS   CLOUDY    70  70 100 S10       29.78R
CHARLES CITY * FOG       72  72 100 CALM      29.81R VSB 1/4
DECORAH *      CLOUDY    72  70  94 CALM      29.81R FOG
DUBUQUE        CLOUDY    70  68  93 S3        29.83R
MONTICELLO *   PTSUNNY   72  68  88 CALM      29.82R
OELWEIN *        N/A    N/A N/A N/A MISG        N/A
WATERLOO       CLOUDY    72  70  93 NE6       29.80R
$$

IAZ064-065-067-068-078-221400-
   EAST CENTRAL IOWA

CITY           SKY/WX    TMP DP  RH WIND       PRES   REMARKS
DAVENPORT      CLOUDY    70  67  90 S13       29.80R
IOWA CITY      CLOUDY    73  69  87 S10       29.80R
MUSCATINE *    CLOUDY    72  68  88 S9G18     29.80R
QUAD CITIES    CLOUDY    71  67  87 S13       29.77S
$$

IAZ062-063-075>077-085>089-095>099-221400-
   SOUTHEAST IOWA

CITY           SKY/WX    TMP DP  RH WIND       PRES   REMARKS
BURLINGTON     PTSUNNY   70  70 100 SE8       29.85F
FAIRFIELD *    CLOUDY    73  68  83 S13G22    29.84S
FORT MADISON * CLOUDY    70  70 100 SE7       29.87F
KEOKUK *       CLOUDY    70  70 100 SE12      29.87F
OSKALOOSA *      N/A     72  68  89 SE21G28   29.77F
OTTUMWA        MOSUNNY   73  71  93 SE22G32   29.78F
WASHINGTON *   CLOUDY    72  70  94 S15G22    29.82S
$$

ABBREVIATIONS USED IN REMARKS
   TC - TEMPERATURES IN CELSIUS
  WCI - WIND CHILL INDEX
   HX - HEAT INDEX
  VSB - VISIBILITY
$$





USA.gov is the U.S. government's official web portal to all federal, state and local government web resources and services.